This demonstration page uses our WeatherBlox Daily Observations layout. Learn more.

Left ArrowRight Arrow

Hourly Observations for March 16, 2015

Temp ( °F °C ) Dew Point ( °F °C ) Humidity (%) Winds ( mph kmh ) Pressure ( in mb ) Visibility ( mi km ) Precip ( " mm )
12:51 am 00:51 Clear 54 12.2 20 -6.7 26 26 SSE 10 17 30.07 1018 10 16 0.00 0.00
1:51 am 01:51 Clear 55 12.8 19 -7.2 24 24 SE 10 17 30.07 1018 10 16 0.00 0.00
2:51 am 02:51 Clear 53 11.7 20 -6.7 27 27 ESE 12 19 30.05 1018 10 16 0.00 0.00
3:51 am 03:51 Clear 53 11.7 20 -6.7 27 27 SSE 9 15 30.04 1017 10 16 0.00 0.00
4:51 am 04:51 Clear 55 12.8 20 -6.7 25 25 SSE 12 19 30.05 1018 10 16 0.00 0.00
5:51 am 05:51 Clear 53 11.7 21 -6.1 28 28 SE 10 17 30.07 1018 10 16 0.00 0.00
6:51 am 06:51 Sunny 54 12.2 21 -6.1 28 28 SE 13 20 30.09 1019 10 16 0.00 0.00
7:51 am 07:51 Sunny 58 14.4 26 -3.3 29 29 SE 9 15 30.11 1020 10 16 0.00 0.00
8:51 am 08:51 Sunny 62 16.7 29 -1.7 29 29 SSE 8 13 30.11 1020 10 16 0.00 0.00
9:51 am 09:51 Sunny 67 19.4 35 1.7 31 31 SSE 13 20 30.09 1019 10 16 0.00 0.00
10:51 am 10:51 Sunny 68 20 36 2.2 31 31 SSE 12 19 30.06 1018 10 16 0.00 0.00
11:51 am 11:51 Sunny 73 22.8 38 3.3 28 28 ESE 18 30 30.02 1017 10 16 0.00 0.00
12:51 pm 12:51 Sunny 75 23.9 38 3.3 26 26 SSE 8 13 29.99 1016 10 16 0.00 0.00
1:51 pm 13:51 Sunny 78 25.6 37 2.8 23 23 ESE 13 20 29.94 1014 10 16 0.00 0.00
2:51 pm 14:51 Sunny 79 26.1 37 2.8 22 22 SE 17 28 29.93 1014 10 16 0.00 0.00
3:51 pm 15:51 Sunny 78 25.6 38 3.3 24 24 ESE 12 19 29.91 1013 10 16 0.00 0.00
4:51 pm 16:51 Mostly Sunny 78 25.6 38 3.3 24 24 SE 10 17 29.88 1012 10 16 0.00 0.00
5:51 pm 17:51 Sunny 76 24.4 38 3.3 25 25 SE 15 24 29.89 1012 10 16 0.00 0.00
6:51 pm 18:51 Clear 73 22.8 39 3.9 29 29 SE 10 17 29.90 1013 10 16 0.00 0.00
7:51 pm 19:51 Clear 70 21.1 39 3.9 32 32 ESE 8 13 29.92 1013 10 16 0.00 0.00
8:51 pm 20:51 Clear 65 18.3 39 3.9 39 39 SE 8 13 29.93 1013 10 16 0.00 0.00
9:51 pm 21:51 Clear 62 16.7 39 3.9 43 43 ESE 6 9 29.93 1014 10 16 0.00 0.00
10:51 pm 22:51 Clear 61 16.1 39 3.9 44 44 ESE 8 13 29.93 1014 10 16 0.00 0.00
11:51 pm 23:51 Clear 60 15.6 39 3.9 46 46 SSE 8 13 29.93 1014 10 16 0.00 0.00

Powered by AerisWeather